FW9784 Weather Reports


Display with metric or nautical units.
time (UTC)temp
F
wind
direction
speed
MPH
gust
MPH
rain 1hr
in
rain 24hr
in
rain mn
in
humidity
%
barometer
mb
20260902200410 76 211 5.0 11.0 0.00 0.00 0.00 69 1015.8
20260902195914 76 265 5.0 11.0 0.00 0.00 0.00 70 1015.9
20260902195524 76 0 4.0 11.0 0.00 0.00 0.00 70 1015.9
20260902195427 76 230 5.0 11.0 0.00 0.00 0.00 70 1015.9
20260902194402 76 220 4.0 10.0 0.00 0.00 0.00 70 1015.9
20260902193916 76 207 5.0 10.0 0.00 0.00 0.00 71 1016.0
20260902193405 76 212 5.0 10.0 0.00 0.00 0.00 70 1016.0
20260902192901 76 0 5.0 10.0 0.00 0.00 0.00 71 1016.0
20260902192750 76 0 4.0 10.0 0.00 0.00 0.00 71 1016.2
20260902192523 76 254 4.0 9.0 0.00 0.00 0.00 72 1016.3
20260902192128 76 226 4.0 11.0 0.00 0.00 0.00 72 1016.2
20260902191824 75 190 4.0 11.0 0.00 0.00 0.00 72 1016.3
20260902191537 75 253 4.0 11.0 0.00 0.00 0.00 72 1016.2
20260902191311 75 0 4.0 9.0 0.00 0.00 0.00 72 1016.3
20260902185401 75 0 4.0 8.0 0.00 0.00 0.00 73 1016.4
20260902185257 76 178 4.0 10.0 0.00 0.00 0.00 73 1016.3
20260902185048 76 178 4.0 10.0 0.00 0.00 0.00 73 1016.3
20260902185018 76 202 4.0 9.0 0.00 0.00 0.00 72 1016.3
20260902184939 75 275 4.0 11.0 0.00 0.00 0.00 73 1016.3
20260902184404 75 0 5.0 11.0 0.00 0.00 0.00 73 1016.4
20260902184355 75 0 3.0 10.0 0.00 0.00 0.00 72 1016.4
20260902184350 76 184 3.0 7.0 0.00 0.00 0.00 72 1016.3
20260902184033 76 232 4.0 10.0 0.00 0.00 0.00 72 1016.3
20260902183032 76 178 4.0 10.0 0.00 0.00 0.00 73 1016.3
20260902181406 75 227 3.0 8.0 0.00 0.00 0.00 73 1016.2
20260902181358 76 209 3.0 7.0 0.00 0.00 0.00 72 1016.3
20260902181029 75 0 3.0 7.0 0.00 0.00 0.00 72 1016.2
20260902180123 75 271 4.0 8.0 0.00 0.00 0.00 72 1016.2
20260902175519 75 209 3.0 7.0 0.00 0.00 0.00 73 1016.1
20260902175418 75 163 3.0 6.0 0.00 0.00 0.00 73 1016.2
20260902174347 75 248 3.0 9.0 0.00 0.00 0.00 73 1016.2
20260902173851 75 295 3.0 9.0 0.00 0.00 0.00 72 1016.3
20260902173344 75 261 3.0 7.0 0.00 0.00 0.00 72 1016.2
20260902172849 75 202 3.0 7.0 0.00 0.00 0.00 72 1016.3
20260902172537 75 0 1.0 5.0 0.00 0.00 0.00 72 1016.2
20260902172420 75 142 2.0 7.0 0.00 0.00 0.00 72 1016.2
20260902171350 75 217 1.0 5.0 0.00 0.00 0.00 71 1016.1
20260902171259 75 227 2.0 6.0 0.00 0.00 0.00 70 1016.2
20260902170340 75 113 2.0 6.0 0.00 0.00 0.00 70 1016.1
20260902170236 73 106 1.0 4.0 0.00 0.00 0.00 73 1015.9
20260902170045 74 101 2.0 6.0 0.00 0.00 0.00 72 1015.9
20260902165850 74 123 2.0 4.0 0.00 0.00 0.00 71 1016.1
20260902165748 74 134 2.0 5.0 0.00 0.00 0.00 72 1015.9
20260902164945 74 232 2.0 6.0 0.00 0.00 0.00 71 1015.9
20260902164046 74 184 2.0 5.0 0.00 0.00 0.00 72 1016.0
20260902163606 72 83 1.0 4.0 0.00 0.00 0.00 75 1016.1
20260902163447 73 124 0.0 3.0 0.00 0.00 0.00 75 1015.9
20260902163401 74 119 2.0 4.0 0.00 0.00 0.00 72 1016.0
20260902163028 74 86 2.0 4.0 0.00 0.00 0.00 73 1016.0
20260902161650 72 83 0.0 0.0 0.00 0.00 0.00 75 1016.0
20260902161408 72 83 0.0 0.0 0.00 0.00 0.00 75 1016.0
20260902160830 72 83 2.0 4.0 0.00 0.00 0.00 76 1016.1
20260902160114 71 120 2.0 4.0 0.00 0.00 0.00 75 1016.1
20260902155837 71 120 2.0 4.0 0.00 0.00 0.00 75 1016.1
20260902155615 71 196 2.0 4.0 0.00 0.00 0.00 76 1016.0
20260902155300 71 189 1.0 4.0 0.00 0.00 0.00 77 1016.0
20260902154534 71 184 0.0 4.0 0.00 0.00 0.00 77 1016.1
20260902154344 71 103 0.0 2.0 0.00 0.00 0.00 78 1016.0
20260902153317 70 103 0.0 3.0 0.00 0.00 0.00 79 1016.1
20260902152931 70 118 1.0 3.0 0.00 0.00 0.00 80 1016.0
20260902152823 70 118 0.0 3.0 0.00 0.00 0.00 79 1016.0
20260902152019 69 123 1.0 3.0 0.00 0.00 0.00 82 1015.9
20260902151225 68 251 0.0 3.0 0.00 0.00 0.00 84 1015.9
20260902150315 66 251 0.0 0.0 0.00 0.00 0.00 88 1016.0
20260902150307 67 251 0.0 0.0 0.00 0.00 0.00 87 1016.0
20260902145307 65 251 0.0 0.0 0.00 0.00 0.00 89 1016.0
20260902145055 65 251 0.0 0.0 0.00 0.00 0.00 89 1016.1
20260902144314 64 251 0.0 0.0 0.00 0.00 0.00 90 1016.0
20260902143829 64 251 0.0 0.0 0.00 0.00 0.00 91 1015.9
20260902143812 64 251 0.0 0.0 0.00 0.00 0.00 91 1015.9
20260902143803 63 251 0.0 0.0 0.00 0.00 0.00 92 1016.0
20260902142747 62 251 0.0 0.0 0.00 0.00 0.00 92 1015.5
20260902142319 63 251 0.0 0.0 0.00 0.00 0.00 92 1015.9
20260902142016 63 251 0.0 0.0 0.00 0.00 0.00 92 1015.8
20260902141457 63 251 0.0 0.0 0.00 0.00 0.00 93 1015.7
20260902140831 62 251 0.0 0.0 0.00 0.00 0.00 93 1015.6
20260902135801 62 251 0.0 0.0 0.00 0.00 0.00 92 1015.3
20260902135301 61 251 0.0 0.0 0.00 0.00 0.00 91 1015.3
20260902134803 61 251 0.0 0.0 0.00 0.00 0.00 91 1015.3
20260902134305 61 251 0.0 0.0 0.00 0.00 0.00 91 1015.3
20260902133804 61 251 0.0 0.0 0.00 0.00 0.00 91 1015.2
20260902133301 61 251 0.0 0.0 0.00 0.00 0.00 91 1015.1
20260902132801 61 251 0.0 0.0 0.00 0.00 0.00 91 1015.1
20260902132301 61 251 0.0 0.0 0.00 0.00 0.00 91 1015.0
20260902131806 61 251 0.0 0.0 0.00 0.00 0.00 91 1015.0
20260902131301 61 251 0.0 0.0 0.00 0.00 0.00 91 1015.1
20260902130801 61 251 0.0 0.0 0.00 0.00 0.00 91 1015.0
20260902130301 61 251 0.0 0.0 0.00 0.00 0.00 91 1015.0
20260902125801 61 251 0.0 0.0 0.00 0.00 0.00 91 1015.0
20260902125301 62 251 0.0 0.0 0.00 0.00 0.00 91 1015.1
20260902124802 62 251 0.0 0.0 0.00 0.00 0.00 91 1015.2
20260902124304 62 251 0.0 0.0 0.00 0.00 0.00 91 1015.1
20260902123805 62 251 0.0 0.0 0.00 0.00 0.00 90 1015.2
20260902123303 62 251 0.0 0.0 0.00 0.00 0.00 90 1015.2
20260902122757 62 251 0.0 0.0 0.00 0.00 0.00 90 1015.2
20260902122640 62 251 0.0 0.0 0.00 0.00 0.00 90 1015.3
20260902121757 62 251 0.0 0.0 0.00 0.00 0.00 90 1015.3
20260902121254 62 251 0.0 0.0 0.00 0.00 0.00 90 1015.3
20260902120758 62 251 0.0 0.0 0.00 0.00 0.00 90 1015.3
20260902120305 62 251 0.0 0.0 0.00 0.00 0.00 89 1015.3
20260902115750 62 251 0.0 0.0 0.00 0.00 0.00 89 1015.4
20260902115253 62 251 0.0 0.0 0.00 0.00 0.00 89 1015.4
20260902114800 63 251 0.0 0.0 0.00 0.00 0.00 89 1015.4
20260902114749 62 251 0.0 0.0 0.00 0.00 0.00 89 1015.4
20260902113741 63 251 0.0 0.0 0.00 0.00 0.00 89 1015.3
20260902113639 63 251 0.0 0.0 0.00 0.00 0.00 89 1015.3
20260902112739 63 251 0.0 0.0 0.00 0.00 0.00 88 1015.3
20260902112721 63 251 0.0 0.0 0.00 0.00 0.00 88 1015.4
20260902111734 63 251 0.0 0.0 0.00 0.00 0.00 88 1015.4
20260902111234 63 251 0.0 0.0 0.00 0.00 0.00 88 1015.4
20260902110729 63 251 0.0 0.0 0.00 0.00 0.00 88 1015.4
20260902110236 64 251 0.0 0.0 0.00 0.00 0.00 88 1015.4
20260902105726 64 251 0.0 0.0 0.00 0.00 0.00 88 1015.4
20260902105231 64 251 0.0 0.0 0.00 0.00 0.00 87 1015.4
20260902104723 64 251 0.0 0.0 0.00 0.00 0.00 87 1015.4
20260902104220 64 251 0.0 0.0 0.00 0.00 0.00 87 1015.3
20260902103721 65 251 0.0 0.0 0.00 0.00 0.00 86 1015.4
20260902103220 65 251 0.0 0.0 0.00 0.00 0.00 87 1015.4
20260902102723 65 251 0.0 0.0 0.00 0.00 0.00 87 1015.4
20260902102617 65 251 0.0 0.0 0.00 0.00 0.00 87 1015.3
20260902101714 65 251 0.0 0.0 0.00 0.00 0.00 86 1015.4
20260902101213 66 251 0.0 0.0 0.00 0.00 0.00 86 1015.4
20260902100712 66 251 0.0 0.0 0.00 0.00 0.00 86 1015.4
20260902100209 66 251 0.0 0.0 0.00 0.00 0.00 85 1015.4
20260902095711 66 251 0.0 0.0 0.00 0.00 0.00 85 1015.5
20260902095204 66 251 0.0 0.0 0.00 0.00 0.00 85 1015.5
20260902094706 67 251 0.0 0.0 0.00 0.00 0.00 85 1015.5
20260902094208 67 251 0.0 0.0 0.00 0.00 0.00 84 1015.5
20260902093705 67 251 1.0 2.0 0.00 0.00 0.00 84 1015.5
20260902093206 67 251 1.0 3.0 0.00 0.00 0.00 84 1015.6
20260902092730 67 251 1.0 3.0 0.00 0.00 0.00 84 1015.6
20260902092242 67 205 1.0 2.0 0.00 0.00 0.00 83 1015.5
20260902092224 67 0 1.0 3.0 0.00 0.00 0.00 83 1015.5
20260902091225 67 205 1.0 3.0 0.00 0.00 0.00 83 1015.5
20260902090713 67 205 1.0 4.0 0.00 0.00 0.00 82 1015.4
20260902090225 67 223 1.0 7.0 0.00 0.00 0.00 82 1015.5
20260902085804 67 0 2.0 4.0 0.00 0.00 0.00 83 1015.5
20260902085728 67 223 2.0 7.0 0.00 0.00 0.00 82 1015.6
20260902084707 67 212 2.0 6.0 0.00 0.00 0.00 83 1015.5
20260902084217 68 221 2.0 6.0 0.00 0.00 0.00 84 1015.6
20260902083715 68 192 2.0 5.0 0.00 0.00 0.00 83 1015.5
20260902083219 68 190 2.0 5.0 0.00 0.00 0.00 83 1015.7
20260902082721 68 227 2.0 4.0 0.00 0.00 0.00 83 1015.6
20260902082204 68 232 2.0 6.0 0.00 0.00 0.00 83 1015.7
20260902082123 67 230 2.0 6.0 0.00 0.00 0.00 83 1015.6
20260902081223 67 200 1.0 3.0 0.00 0.00 0.00 83 1015.7
20260902080724 68 203 2.0 5.0 0.00 0.00 0.00 84 1015.5
20260902080712 67 218 1.0 3.0 0.00 0.00 0.00 84 1015.6
20260902080548 67 210 1.0 5.0 0.00 0.00 0.00 83 1015.5
20260902080543 67 253 1.0 5.0 0.00 0.00 0.00 84 1015.5
20260902080437 68 205 1.0 5.0 0.00 0.00 0.00 84 1015.5
20260902080426 68 203 2.0 5.0 0.00 0.00 0.00 84 1015.5
20260902080311 67 210 1.0 5.0 0.00 0.00 0.00 83 1015.5
20260902074205 68 171 2.0 5.0 0.00 0.00 0.00 84 1015.6
20260902073721 68 275 1.0 5.0 0.00 0.00 0.00 84 1015.5
20260902073206 68 180 0.0 3.0 0.00 0.00 0.00 84 1015.5
20260902072706 68 219 1.0 3.0 0.00 0.00 0.00 84 1015.4
20260902072158 68 219 2.0 4.0 0.00 0.00 0.00 83 1015.4
20260902071816 68 212 1.0 5.0 0.00 0.00 0.00 83 1015.3
20260902071748 68 229 2.0 5.0 0.00 0.00 0.00 83 1015.3
20260902070723 68 216 2.0 4.0 0.00 0.00 0.00 83 1015.3
20260902070203 68 0 2.0 6.0 0.00 0.00 0.00 83 1015.3
20260902065706 68 223 1.0 6.0 0.00 0.00 0.00 83 1015.2
20260902065158 68 0 1.0 3.0 0.00 0.00 0.00 83 1015.2
20260902064709 68 0 1.0 3.0 0.00 0.00 0.00 83 1015.2
20260902064209 68 0 1.0 3.0 0.00 0.00 0.00 83 1015.2
20260902063700 68 0 2.0 4.0 0.00 0.00 0.00 83 1015.2
20260902063450 68 0 2.0 5.0 0.00 0.00 0.00 83 1015.2
20260902062710 68 202 2.0 5.0 0.00 0.00 0.00 82 1015.1
20260902062444 68 247 1.0 5.0 0.00 0.00 0.00 82 1015.2
20260902061721 68 217 1.0 4.0 0.00 0.00 0.00 83 1015.2
20260902061709 68 230 1.0 3.0 0.00 0.00 0.00 83 1015.2
20260902060658 68 217 1.0 5.0 0.00 0.00 0.00 83 1015.1
20260902060146 68 225 1.0 5.0 0.00 0.00 0.00 83 1015.0
20260902055651 68 0 2.0 6.0 0.00 0.00 0.00 83 1015.0
20260902055145 68 232 2.0 6.0 0.00 0.00 0.00 82 1015.0
20260902054650 68 256 2.0 6.0 0.00 0.00 0.00 82 1014.8
20260902054158 68 288 2.0 6.0 0.00 0.00 0.00 82 1015.0
20260902054146 68 0 2.0 6.0 0.00 0.00 0.00 82 1014.9
20260902053317 68 257 2.0 5.0 0.00 0.00 0.00 81 1015.0
20260902053215 68 0 2.0 5.0 0.00 0.00 0.00 82 1015.0
20260902052140 68 0 2.0 5.0 0.00 0.00 0.00 81 1014.9
20260902051643 68 0 2.0 5.0 0.00 0.00 0.00 81 1015.0
20260902051141 68 0 1.0 4.0 0.00 0.00 0.00 81 1015.0
20260902050648 68 0 1.0 3.0 0.00 0.00 0.00 81 1015.0
20260902050449 68 0 1.0 4.0 0.00 0.00 0.00 81 1015.0
20260902045638 68 219 1.0 5.0 0.00 0.00 0.00 80 1015.0
20260902045341 69 0 1.0 3.0 0.00 0.00 0.00 80 1014.8
20260902045230 68 0 1.0 5.0 0.00 0.00 0.00 80 1014.8
20260902044723 68 0 1.0 3.0 0.00 0.00 0.00 80 1014.9
20260902043923 69 215 1.0 4.0 0.00 0.00 0.00 80 1014.7
20260902043705 69 215 1.0 4.0 0.00 0.00 0.00 80 1014.7
20260902043139 68 261 1.0 4.0 0.00 0.00 0.00 79 1014.7
20260902042634 69 0 1.0 4.0 0.00 0.00 0.00 80 1014.6
20260902042135 69 223 1.0 4.0 0.00 0.00 0.00 79 1014.6
20260902041644 69 227 1.0 3.0 0.00 0.00 0.00 79 1014.6
20260902041138 69 0 1.0 3.0 0.00 0.00 0.00 79 1014.5
20260902040636 69 265 1.0 3.0 0.00 0.00 0.00 79 1014.4
20260902040138 69 252 1.0 5.0 0.00 0.00 0.00 79 1014.4
20260902040134 69 227 1.0 5.0 0.00 0.00 0.00 79 1014.2
20260902035135 69 280 1.0 5.0 0.00 0.00 0.00 79 1014.2
20260902034653 69 257 1.0 4.0 0.00 0.00 0.00 79 1014.2
20260902034151 69 0 1.0 8.0 0.00 0.00 0.00 79 1013.9
20260902034142 69 205 1.0 5.0 0.00 0.00 0.00 79 1014.1
20260902033140 69 0 1.0 8.0 0.00 0.00 0.00 78 1013.9
20260902032633 69 220 1.0 3.0 0.00 0.00 0.00 78 1013.9
20260902032132 69 0 1.0 4.0 0.00 0.00 0.00 77 1014.0
20260902031630 69 0 2.0 6.0 0.00 0.00 0.00 77 1013.9
20260902031128 69 280 2.0 7.0 0.00 0.00 0.00 77 1013.8
20260902030630 69 259 2.0 7.0 0.00 0.00 0.00 77 1013.9
20260902030130 69 0 1.0 4.0 0.00 0.00 0.00 78 1013.8
20260902025633 69 258 2.0 8.0 0.00 0.00 0.00 78 1013.9
20260902025208 70 0 2.0 7.0 0.00 0.00 0.00 77 1013.7
20260902025139 70 248 2.0 8.0 0.00 0.00 0.00 77 1013.8
20260902024125 70 248 3.0 6.0 0.00 0.00 0.00 76 1013.6
20260902023900 70 231 3.0 6.0 0.00 0.00 0.00 76 1013.6
20260902023409 70 292 2.0 10.0 0.00 0.00 0.00 76 1013.6
20260902022628 70 0 3.0 10.0 0.00 0.00 0.00 77 1013.6
20260902022122 70 271 3.0 8.0 0.00 0.00 0.00 77 1013.6
20260902021625 70 191 2.0 8.0 0.00 0.00 0.00 77 1013.5
20260902021612 70 0 3.0 9.0 0.00 0.00 0.00 77 1013.6
20260902021558 70 216 2.0 8.0 0.00 0.00 0.00 78 1013.5
20260902020643 70 201 3.0 9.0 0.00 0.00 0.00 78 1013.6
20260902015626 71 227 3.0 9.0 0.00 0.00 0.00 79 1013.6
20260902015125 71 210 3.0 9.0 0.00 0.00 0.00 79 1013.6
20260902014626 71 256 2.0 8.0 0.00 0.00 0.00 79 1013.7
20260902014455 72 208 3.0 8.0 0.00 0.00 0.00 79 1013.7
20260902014256 71 230 3.0 7.0 0.00 0.00 0.00 79 1013.6
20260902013808 71 211 3.0 8.0 0.00 0.00 0.00 79 1013.6
20260902013707 71 209 3.0 7.0 0.00 0.00 0.00 79 1013.7
20260902013135 71 0 3.0 8.0 0.00 0.00 0.00 79 1013.7
20260902011625 72 280 4.0 8.0 0.00 0.00 0.00 78 1013.8
20260902011621 72 0 4.0 9.0 0.00 0.00 0.00 78 1013.8
20260902010619 72 184 4.0 10.0 0.00 0.00 0.00 76 1013.7
20260902010127 73 275 4.0 10.0 0.00 0.00 0.00 76 1013.9
20260902005620 73 205 3.0 9.0 0.00 0.00 0.00 75 1013.8
20260902005137 74 264 4.0 10.0 0.00 0.00 0.00 76 1013.8
20260902004623 74 224 4.0 10.0 0.00 0.00 0.00 75 1013.8
20260902004128 74 252 4.0 9.0 0.00 0.00 0.00 75 1013.8
20260902003618 74 0 4.0 9.0 0.00 0.00 0.00 74 1013.9
20260902003132 75 251 4.0 9.0 0.00 0.00 0.00 74 1014.1
20260902002615 75 275 4.0 8.0 0.00 0.00 0.00 75 1014.0
20260902002116 74 257 4.0 11.0 0.00 0.00 0.00 75 1014.1
20260902001955 75 0 4.0 11.0 0.00 0.00 0.00 75 1014.0
20260902001114 74 258 4.0 13.0 0.00 0.00 0.00 74 1014.0
20260902000614 75 323 5.0 13.0 0.00 0.00 0.00 73 1014.1
20260902000115 75 211 4.0 10.0 0.00 0.00 0.00 73 1014.1
20260901235615 75 0 4.0 10.0 0.00 0.00 0.00 73 1014.1
20260901235115 75 252 4.0 11.0 0.00 0.00 0.00 72 1014.1
20260901234929 75 0 5.0 12.0 0.00 0.00 0.00 73 1014.2
20260901234742 75 0 5.0 11.0 0.00 0.00 0.00 73 1014.2
20260901233609 75 232 5.0 12.0 0.00 0.00 0.00 73 1014.2
20260901233111 75 259 4.0 10.0 0.00 0.00 0.00 72 1014.2
20260901232608 75 0 4.0 10.0 0.00 0.00 0.00 72 1014.3
20260901232111 75 234 5.0 10.0 0.00 0.00 0.00 73 1014.3
20260901231937 75 0 5.0 10.0 0.00 0.00 0.00 72 1014.3
20260901231115 75 212 5.0 13.0 0.00 0.00 0.00 72 1014.3
20260901230959 75 256 5.0 13.0 0.00 0.00 0.00 72 1014.4
20260901230111 75 254 6.0 12.0 0.00 0.00 0.00 72 1014.5
20260901225606 76 168 5.0 12.0 0.00 0.00 0.00 71 1014.4
20260901225107 76 235 5.0 14.0 0.00 0.00 0.00 71 1014.4
20260901224604 75 219 5.0 14.0 0.00 0.00 0.00 71 1014.4
20260901224107 76 264 5.0 13.0 0.00 0.00 0.00 71 1014.4
20260901223605 76 0 5.0 12.0 0.00 0.00 0.00 71 1014.4
20260901223105 76 274 5.0 12.0 0.00 0.00 0.00 71 1014.4
20260901222601 76 0 5.0 12.0 0.00 0.00 0.00 71 1014.5
20260901222103 76 253 5.0 12.0 0.00 0.00 0.00 71 1014.5
20260901221605 76 230 4.0 11.0 0.00 0.00 0.00 71 1014.5
20260901221102 76 250 5.0 11.0 0.00 0.00 0.00 71 1014.6
20260901220601 76 0 5.0 12.0 0.00 0.00 0.00 71 1014.6
20260901215937 76 188 5.0 12.0 0.00 0.00 0.00 71 1014.7
20260901215102 76 0 5.0 11.0 0.00 0.00 0.00 71 1014.8
20260901214605 76 0 5.0 13.0 0.00 0.00 0.00 71 1014.7
20260901214102 76 0 5.0 13.0 0.00 0.00 0.00 70 1014.7
20260901213605 76 231 5.0 10.0 0.00 0.00 0.00 70 1014.8
20260901213103 76 302 4.0 9.0 0.00 0.00 0.00 70 1014.7
20260901212946 77 0 5.0 12.0 0.00 0.00 0.00 69 1014.9
20260901212057 76 0 5.0 12.0 0.00 0.00 0.00 70 1014.9
20260901211939 76 0 4.0 11.0 0.00 0.00 0.00 70 1014.9
20260901211039 76 0 4.0 9.0 0.00 0.00 0.00 71 1014.9
20260901210530 76 205 5.0 11.0 0.00 0.00 0.00 70 1014.8
20260901210031 76 0 4.0 11.0 0.00 0.00 0.00 69 1014.9
20260901205530 76 262 4.0 10.0 0.00 0.00 0.00 70 1015.0
20260901205032 76 0 4.0 12.0 0.00 0.00 0.00 71 1014.9
20260901204532 76 282 4.0 12.0 0.00 0.00 0.00 71 1015.0
20260901204407 76 0 5.0 12.0 0.00 0.00 0.00 72 1015.1
20260901203532 76 328 5.0 11.0 0.00 0.00 0.00 72 1015.1
20260901203031 76 0 5.0 11.0 0.00 0.00 0.00 72 1015.1
20260901202530 76 298 4.0 10.0 0.00 0.00 0.00 71 1015.1
20260901202029 76 188 4.0 10.0 0.00 0.00 0.00 72 1015.2
20260901201530 76 0 4.0 10.0 0.00 0.00 0.00 71 1015.2
20260901201329 76 0 4.0 9.0 0.00 0.00 0.00 71 1015.2
20260901200530 76 0 4.0 11.0 0.00 0.00 0.00 72 1015.3